Overview Statistics Trail Chart Weather Telemetry Raw packets
 

This is the latest recevied weather packets stored in our database for station/object NC4M. If no packets are shown the sender has not sent any weather packets the latest 10 day(s).

<< 109 110 111 112 113 114 >>
Time Temp. Humidity Pressure Rain* Wind** Luminosity Snow
1787739685 22.22° C 93% 1016 hPa 0 mm - 0 W/m² -
1787739380 22.22° C 92% 1015.8 hPa 0 mm - 0 W/m² -
1787739076 22.22° C 92% 1016.3 hPa 0 mm - 0 W/m² -
1787738772 22.22° C 92% 1016.3 hPa 0 mm - 0 W/m² -
1787738468 22.22° C 91% 1016.1 hPa 0 mm - 0 W/m² -
1787738166 22.22° C 91% 1016 hPa 0 mm - 0 W/m² -
1787737862 22.22° C 89% 1016.2 hPa 0 mm - 0 W/m² -
1787737562 22.22° C 91% 1016 hPa 0 mm - 0 W/m² -
1787737256 22.22° C 91% 1016.1 hPa 0 mm - 0 W/m² -
1787736953 22.22° C 91% 1016.2 hPa 0 mm - 0 W/m² -
1787736649 22.78° C 91% 1016.1 hPa 0 mm - 0 W/m² -
1787736344 22.22° C 89% 1016.4 hPa 0 mm - 0 W/m² -
1787736042 22.22° C 88% 1016.2 hPa 0 mm - 0 W/m² -
1787735741 22.22° C 90% 1016.5 hPa 0 mm - 0 W/m² -
1787735437 22.22° C 90% 1016.5 hPa 0 mm - 0 W/m² -
1787735136 22.22° C 90% 1016.4 hPa 0 mm - 0 W/m² -
1787734832 22.22° C 90% 1016.5 hPa 0 mm - 0 W/m² -
1787734531 22.78° C 90% 1016.6 hPa 0 mm - 0 W/m² -
1787734227 22.78° C 91% 1016.6 hPa 0 mm - 0 W/m² -
1787733921 22.78° C 91% 1016.6 hPa 0 mm - 0 W/m² -
1787733621 22.78° C 91% 1016.6 hPa 0 mm - 0 W/m² -
1787733317 22.78° C 88% 1016.7 hPa 0 mm - 0 W/m² -
1787733016 22.78° C 89% 1016.7 hPa 0 mm - 0 W/m² -
1787732708 22.78° C 90% 1016.8 hPa 0 mm - 0 W/m² -
1787732408 22.78° C 90% 1016.7 hPa 0 mm - 0 W/m² -

* Rain latest hour (hover to see other rain measurements)
** Current wind speed in m/s (hover to see current wind gust speed)